Hourly Data Report for November 19, 2019

MIRAMICHI RCS
NEW BRUNSWICK
Current Station Operator: ECCC - MSC

47°00'34.000" N
65°27'54.000" W
33.00 m
8100989
71744
ACQ

Download Data

Hourly Data (November 2019)
Hourly Data Report for November 19, 2019
TIME
LST
Temp Definition
°C
Dew Point Definition
°C
Rel Hum Definition
%
Precip. Amount Definition
mm

Wind Dir Definition
10's deg

Wind Spd Definition
km/h
Visibility Definition
km
Stn Press Definition
kPa
Hmdx Definition


Wind Chill Definition


Weather Definition


00:00 1.2 0.4 95 1.5 3 15   100.51     LegendNANA
01:00 1.1 0.4 95 2.0 3 17   100.34     LegendNANA
02:00 1.2 0.1 92 0.5 3 22   100.14     LegendNANA
03:00 1.1 -0.3 91 0.2 4 21   100.08     LegendNANA
04:00 1.1 -0.6 89 0.2 3 17   100.05     LegendNANA
05:00 1.0 -0.7 88 0.2 3 16   100.02     LegendNANA
06:00 0.9 -0.2 92 1.1 2 17   100.03     LegendNANA
07:00 0.7 -0.9 89 0.7 2 16   100.07     LegendNANA
08:00 0.5 -0.7 92 0.3 2 15   100.07     LegendNANA
09:00 0.0 -1.2 92 0.8 1 12   100.14   -4 LegendNANA
10:00 -0.5 -1.4 94 3.2 35 11   100.14   -4 LegendNANA
11:00 -0.6 -1.3 94 3.1 36 11   100.12   -4 LegendNANA
12:00 -0.1 -1.3 91 1.5 35 8   100.19   -3 LegendNANA
13:00 0.1 -1.0 92 0.6 32 8   100.18     LegendNANA
14:00 0.3 -0.7 93 0.2 33 6   100.18     LegendNANA
15:00 0.2 -0.3 96 0.2 30 5   100.25     LegendNANA
16:00 0.3 -0.2 96 0.5 32 5   100.31     LegendNANA
17:00 0.3 -0.2 97 0.5 35 4   100.37     LegendNANA
18:00 0.3 -0.2 96 0.6 34 4   100.47     LegendNANA
19:00 0.3 -0.2 97 0.8 33 4   100.58     LegendNANA
20:00 0.3 -0.1 97 0.8 34 5   100.67     LegendNANA
21:00 0.2 -0.2 97 0.6 34 4   100.73     LegendNANA
22:00 0.2 -0.3 96 0.2 1 6   100.73     LegendNANA
23:00 0.0 -0.6 96 0.2 35 5   100.76   -2 LegendNANA

Notes on Data Quality.

Legend

  • E = Estimated
  • M = Missing
  • NA = Not Available*
  • [empty] = Indicates an unobserved value
Date modified: